KC0NAX Weather Reports


Display with metric or nautical units.
time (UTC)temp
F
wind
direction
speed
MPH
gust
MPH
rain 1hr
in
rain 24hr
in
rain mn
in
humidity
%
barometer
mb
20260906173349 99 67 2.0 4.0 0.00 0.00 0.00 37 1015.5
20260906172848 98 238 2.0 4.0 0.00 0.00 0.00 37 1015.6
20260906172348 98 57 1.0 2.0 0.00 0.00 0.00 38 1015.6
20260906171848 97 98 3.0 4.0 0.00 0.00 0.00 39 1015.8
20260906171348 98 104 3.0 4.0 0.00 0.00 0.00 38 1015.8
20260906170848 99 83 5.0 6.0 0.00 0.00 0.00 38 1015.9
20260906170348 99 139 5.0 8.0 0.00 0.00 0.00 38 1015.8
20260906165848 99 119 3.0 4.0 0.00 0.00 0.00 39 1015.9
20260906165348 99 35 2.0 3.0 0.00 0.00 0.00 38 1016.0
20260906164852 98 82 2.0 5.0 0.00 0.00 0.00 40 1016.0
20260906164349 98 333 1.0 3.0 0.00 0.00 0.00 41 1016.1
20260906163849 97 70 4.0 6.0 0.00 0.00 0.00 42 1016.2
20260906163348 97 162 2.0 3.0 0.00 0.00 0.00 42 1016.2
20260906162848 97 103 3.0 6.0 0.00 0.00 0.00 43 1016.2
20260906162348 97 67 3.0 5.0 0.00 0.00 0.00 43 1016.2
20260906161848 97 50 0.0 1.0 0.00 0.00 0.00 43 1016.3
20260906161348 96 141 4.0 6.0 0.00 0.00 0.00 44 1016.3
20260906160848 96 78 2.0 4.0 0.00 0.00 0.00 44 1016.3
20260906160350 95 69 1.0 2.0 0.00 0.00 0.00 44 1016.4
20260906155848 95 105 3.0 4.0 0.00 0.00 0.00 44 1016.4
20260906155348 95 137 5.0 6.0 0.00 0.00 0.00 45 1016.3
20260906154848 95 62 4.0 5.0 0.00 0.00 0.00 44 1016.3
20260906154348 95 88 4.0 5.0 0.00 0.00 0.00 45 1016.3
20260906153848 94 92 2.0 5.0 0.00 0.00 0.00 46 1016.3
20260906153348 94 57 1.0 2.0 0.00 0.00 0.00 46 1016.2
20260906152848 93 82 1.0 4.0 0.00 0.00 0.00 48 1016.2
20260906152348 92 360 2.0 3.0 0.00 0.00 0.00 48 1016.1
20260906151848 92 76 2.0 3.0 0.00 0.00 0.00 48 1016.2
20260906151349 91 166 1.0 2.0 0.00 0.00 0.00 50 1016.2
20260906150848 91 96 2.0 3.0 0.00 0.00 0.00 50 1016.2
20260906150349 90 80 1.0 2.0 0.00 0.00 0.00 51 1016.2
20260906145848 89 87 2.0 3.0 0.00 0.00 0.00 53 1016.2
20260906145349 89 166 3.0 4.0 0.00 0.00 0.00 53 1016.2
20260906144849 89 132 3.0 4.0 0.00 0.00 0.00 54 1016.2
20260906144349 89 240 3.0 4.0 0.00 0.00 0.00 54 1016.2
20260906143849 89 173 1.0 4.0 0.00 0.00 0.00 54 1016.2
20260906143348 88 181 2.0 4.0 0.00 0.00 0.00 54 1016.3
20260906142848 88 120 4.0 5.0 0.00 0.00 0.00 55 1016.3
20260906142348 88 138 2.0 3.0 0.00 0.00 0.00 56 1016.2
20260906141848 87 127 1.0 2.0 0.00 0.00 0.00 58 1016.2
20260906141349 87 106 2.0 4.0 0.00 0.00 0.00 58 1016.2
20260906140848 87 89 2.0 3.0 0.00 0.00 0.00 58 1016.2
20260906140349 86 141 2.0 3.0 0.00 0.00 0.00 57 1016.1
20260906135848 85 41 1.0 2.0 0.00 0.00 0.00 59 1016.1
20260906135348 85 135 2.0 4.0 0.00 0.00 0.00 61 1016.1
20260906134848 84 130 2.0 3.0 0.00 0.00 0.00 62 1016.1
20260906134349 83 95 1.0 2.0 0.00 0.00 0.00 63 1016.0
20260906133849 82 109 1.0 3.0 0.00 0.00 0.00 65 1016.0
20260906133348 81 72 2.0 2.0 0.00 0.00 0.00 67 1016.1
20260906132849 80 121 2.0 2.0 0.00 0.00 0.00 68 1016.1
20260906132348 80 116 3.0 3.0 0.00 0.00 0.00 70 1016.0
20260906131849 79 131 4.0 6.0 0.00 0.00 0.00 71 1016.0
20260906131348 79 167 1.0 2.0 0.00 0.00 0.00 73 1016.0
20260906130848 78 229 0.0 2.0 0.00 0.00 0.00 75 1016.0
20260906130349 77 57 1.0 2.0 0.00 0.00 0.00 76 1015.9
20260906125849 76 64 1.0 1.0 0.00 0.00 0.00 78 1016.0
20260906125348 74 22 0.0 0.0 0.00 0.00 0.00 83 1016.0
20260906124848 72 34 0.0 1.0 0.00 0.00 0.00 86 1015.9
20260906124348 71 97 0.0 0.0 0.00 0.00 0.00 88 1015.9
20260906123848 71 33 0.0 0.0 0.00 0.00 0.00 89 1015.8
20260906123348 70 360 0.0 0.0 0.00 0.00 0.00 89 1015.7
20260906122849 70 266 0.0 1.0 0.00 0.00 0.00 89 1015.6
20260906122348 70 315 0.0 0.0 0.00 0.00 0.00 89 1015.5
20260906121848 70 360 0.0 0.0 0.00 0.00 0.00 90 1015.4
20260906121348 70 279 0.0 0.0 0.00 0.00 0.00 89 1015.4
20260906120848 70 360 0.0 0.0 0.00 0.00 0.00 89 1015.4
20260906120348 70 256 1.0 1.0 0.00 0.00 0.00 89 1015.3
20260906115848 70 7 0.0 0.0 0.00 0.00 0.00 89 1015.3
20260906115348 70 360 0.0 0.0 0.00 0.00 0.00 89 1015.2
20260906114848 70 300 0.0 1.0 0.00 0.00 0.00 89 1015.2
20260906114348 70 360 0.0 0.0 0.00 0.00 0.00 89 1015.1
20260906113848 70 360 0.0 0.0 0.00 0.00 0.00 89 1015.1
20260906113349 70 343 0.0 1.0 0.00 0.00 0.00 89 1015.1
20260906112849 70 42 0.0 1.0 0.00 0.00 0.00 89 1015.1
20260906112348 70 302 0.0 1.0 0.00 0.00 0.00 88 1015.0
20260906111848 70 146 0.0 0.0 0.00 0.00 0.00 88 1015.0
20260906111348 70 360 0.0 0.0 0.00 0.00 0.00 88 1014.9
20260906110848 70 81 0.0 1.0 0.00 0.00 0.00 88 1014.9
20260906110348 70 360 0.0 0.0 0.00 0.00 0.00 88 1014.9
20260906105848 70 64 0.0 0.0 0.00 0.00 0.00 88 1014.9
20260906105349 70 45 0.0 0.0 0.00 0.00 0.00 88 1015.0
20260906104849 70 360 0.0 0.0 0.00 0.00 0.00 87 1015.0
20260906104349 71 107 0.0 0.0 0.00 0.00 0.00 87 1015.0
20260906103850 71 135 0.0 0.0 0.00 0.00 0.00 87 1015.0
20260906103348 71 360 0.0 0.0 0.00 0.00 0.00 87 1015.0
20260906102848 71 94 0.0 0.0 0.00 0.00 0.00 87 1015.0
20260906102349 71 360 0.0 0.0 0.00 0.00 0.00 87 1014.9
20260906101848 71 302 0.0 0.0 0.00 0.00 0.00 87 1014.9
20260906101348 71 359 0.0 0.0 0.00 0.00 0.00 86 1014.9
20260906100848 71 360 0.0 0.0 0.00 0.00 0.00 86 1014.9
20260906100348 71 306 1.0 1.0 0.00 0.00 0.00 86 1014.8
20260906095848 71 264 1.0 1.0 0.00 0.00 0.00 86 1014.8
20260906095349 71 34 1.0 1.0 0.00 0.00 0.00 85 1014.8
20260906094848 72 360 0.0 0.0 0.00 0.00 0.00 85 1014.8
20260906094348 72 360 0.0 0.0 0.00 0.00 0.00 85 1014.8
20260906093849 72 331 0.0 1.0 0.00 0.00 0.00 85 1014.8
20260906093348 72 41 0.0 1.0 0.00 0.00 0.00 85 1014.7
20260906092848 72 360 0.0 0.0 0.00 0.00 0.00 85 1014.8
20260906092348 72 19 1.0 1.0 0.00 0.00 0.00 85 1014.8
20260906091848 72 14 1.0 1.0 0.00 0.00 0.00 85 1014.7
20260906091348 72 360 0.0 0.0 0.00 0.00 0.00 85 1014.7
20260906090848 72 31 0.0 1.0 0.00 0.00 0.00 84 1014.7
20260906090354 72 360 0.0 0.0 0.00 0.00 0.00 84 1014.7
20260906085848 72 43 0.0 0.0 0.00 0.00 0.00 84 1014.6
20260906085349 72 360 0.0 0.0 0.00 0.00 0.00 84 1014.6
20260906084848 72 62 1.0 1.0 0.00 0.00 0.00 84 1014.6
20260906084348 72 360 0.0 0.0 0.00 0.00 0.00 83 1014.6
20260906083849 73 360 0.0 0.0 0.00 0.00 0.00 83 1014.6
20260906083350 73 265 0.0 0.0 0.00 0.00 0.00 83 1014.6
20260906082848 73 34 1.0 2.0 0.00 0.00 0.00 82 1014.6
20260906082348 73 54 1.0 1.0 0.00 0.00 0.00 82 1014.6
20260906081848 73 278 1.0 1.0 0.00 0.00 0.00 82 1014.6
20260906081348 73 20 0.0 0.0 0.00 0.00 0.00 81 1014.6
20260906080848 73 22 1.0 1.0 0.00 0.00 0.00 81 1014.5
20260906080348 73 46 1.0 1.0 0.00 0.00 0.00 81 1014.5
20260906075849 73 360 0.0 0.0 0.00 0.00 0.00 81 1014.6
20260906075348 73 90 0.0 1.0 0.00 0.00 0.00 81 1014.5
20260906074848 74 31 0.0 0.0 0.00 0.00 0.00 81 1014.5
20260906074348 74 332 0.0 1.0 0.00 0.00 0.00 80 1014.5
20260906073849 74 38 1.0 1.0 0.00 0.00 0.00 79 1014.5
20260906073348 74 28 2.0 3.0 0.00 0.00 0.00 79 1014.6
20260906072850 74 117 0.0 1.0 0.00 0.00 0.00 79 1014.7
20260906072348 74 31 2.0 2.0 0.00 0.00 0.00 79 1014.6
20260906071849 74 360 0.0 1.0 0.00 0.00 0.00 80 1014.7
20260906071348 74 27 1.0 1.0 0.00 0.00 0.00 79 1014.7
20260906070849 74 24 1.0 1.0 0.00 0.00 0.00 80 1014.6
20260906070348 74 39 0.0 1.0 0.00 0.00 0.00 81 1014.6
20260906065848 74 351 0.0 1.0 0.00 0.00 0.00 81 1014.7
20260906065348 74 94 0.0 1.0 0.00 0.00 0.00 81 1014.7
20260906064848 74 40 0.0 1.0 0.00 0.00 0.00 80 1014.8
20260906064348 74 320 0.0 0.0 0.00 0.00 0.00 80 1014.8
20260906063848 74 316 0.0 1.0 0.00 0.00 0.00 80 1014.8
20260906063348 74 296 0.0 1.0 0.00 0.00 0.00 80 1014.8
20260906062849 74 280 0.0 0.0 0.00 0.00 0.00 80 1014.8
20260906062348 75 280 0.0 1.0 0.00 0.00 0.00 79 1014.8
20260906061848 75 294 1.0 1.0 0.00 0.00 0.00 79 1014.7
20260906061348 75 338 0.0 1.0 0.00 0.00 0.00 78 1014.7
20260906060849 75 114 0.0 1.0 0.00 0.00 0.00 78 1014.8
20260906060348 75 349 0.0 1.0 0.00 0.00 0.00 78 1014.8
20260906055848 75 329 0.0 1.0 0.00 0.00 0.00 78 1014.8
20260906055348 75 250 0.0 1.0 0.00 0.00 0.00 77 1014.8
20260906054849 76 299 0.0 1.0 0.00 0.00 0.00 77 1014.8
20260906054349 76 291 0.0 1.0 0.00 0.00 0.00 76 1014.8
20260906053849 76 294 1.0 1.0 0.00 0.00 0.00 75 1014.8
20260906053348 76 326 0.0 1.0 0.00 0.00 0.00 75 1014.8
20260906052848 76 352 0.0 1.0 0.00 0.00 0.00 75 1014.8
20260906052349 76 29 1.0 1.0 0.00 0.00 0.00 75 1014.7
20260906051849 76 120 0.0 1.0 0.00 0.00 0.00 75 1014.7
20260906051348 76 311 1.0 1.0 0.00 0.00 0.00 75 1014.7
20260906050849 76 326 0.0 1.0 0.00 0.00 0.00 74 1014.7
20260906050348 77 283 1.0 2.0 0.00 0.00 0.00 74 1014.7
20260906045848 77 285 1.0 2.0 0.00 0.00 0.00 73 1014.7
20260906045351 77 47 0.0 1.0 0.00 0.00 0.00 71 1014.7
20260906044849 77 43 0.0 1.0 0.00 0.00 0.00 72 1014.7
20260906044348 78 108 0.0 1.0 0.00 0.00 0.00 72 1014.7
20260906043848 78 321 1.0 1.0 0.00 0.00 0.00 71 1014.8
20260906043348 78 296 1.0 1.0 0.00 0.00 0.00 70 1014.8
20260906042848 79 296 0.0 1.0 0.00 0.00 0.00 69 1014.8
20260906042348 79 344 0.0 1.0 0.00 0.00 0.00 69 1014.8
20260906041849 79 186 0.0 0.0 0.00 0.00 0.00 69 1014.8
20260906041349 79 20 1.0 2.0 0.00 0.00 0.00 67 1014.7
20260906040848 79 39 1.0 2.0 0.00 0.00 0.00 68 1014.7
20260906040348 79 340 0.0 0.0 0.00 0.00 0.00 69 1014.7
20260906035848 79 5 1.0 2.0 0.00 0.00 0.00 67 1014.7
20260906035349 80 93 0.0 1.0 0.00 0.00 0.00 67 1014.7
20260906034848 80 67 0.0 1.0 0.00 0.00 0.00 67 1014.6
20260906034348 80 3 2.0 2.0 0.00 0.00 0.00 67 1014.6
20260906033848 80 200 0.0 2.0 0.00 0.00 0.00 66 1014.6
20260906033348 81 331 0.0 1.0 0.00 0.00 0.00 66 1014.6
20260906032849 81 300 0.0 1.0 0.00 0.00 0.00 66 1014.6
20260906032349 81 77 0.0 1.0 0.00 0.00 0.00 64 1014.6
20260906031848 82 248 0.0 0.0 0.00 0.00 0.00 64 1014.5
20260906031419 82 15 0.0 1.0 0.00 0.00 0.00 64 1014.5
20260906030848 83 335 0.0 1.0 0.00 0.00 0.00 62 1014.4
20260906030348 83 323 1.0 1.0 0.00 0.00 0.00 61 1014.4
20260906025848 83 16 0.0 0.0 0.00 0.00 0.00 58 1014.3
20260906025348 84 51 0.0 1.0 0.00 0.00 0.00 58 1014.3
20260906024848 83 18 1.0 2.0 0.00 0.00 0.00 57 1014.2
20260906024348 83 90 1.0 2.0 0.00 0.00 0.00 58 1014.2
20260906023848 82 52 1.0 4.0 0.00 0.00 0.00 61 1014.1
20260906023348 82 77 1.0 2.0 0.00 0.00 0.00 62 1014.2
20260906022849 83 111 0.0 2.0 0.00 0.00 0.00 61 1014.1
20260906022353 83 92 1.0 2.0 0.00 0.00 0.00 62 1014.0
20260906021849 84 307 0.0 1.0 0.00 0.00 0.00 60 1014.0
20260906021349 84 91 0.0 1.0 0.00 0.00 0.00 59 1014.0
20260906020848 85 123 1.0 2.0 0.00 0.00 0.00 58 1013.9
20260906020348 85 75 0.0 1.0 0.00 0.00 0.00 58 1013.8
20260906015849 85 55 1.0 2.0 0.00 0.00 0.00 56 1013.7
20260906015348 86 62 0.0 1.0 0.00 0.00 0.00 56 1013.7
20260906014848 86 84 2.0 3.0 0.00 0.00 0.00 54 1013.7
20260906014348 86 14 0.0 1.0 0.00 0.00 0.00 54 1013.5
20260906013848 87 88 2.0 3.0 0.00 0.00 0.00 54 1013.4
20260906013348 87 72 0.0 1.0 0.00 0.00 0.00 54 1013.4
20260906012848 87 67 2.0 4.0 0.00 0.00 0.00 52 1013.4
20260906012348 88 19 0.0 1.0 0.00 0.00 0.00 53 1013.4
20260906011848 88 24 0.0 1.0 0.00 0.00 0.00 52 1013.4
20260906011348 89 15 0.0 1.0 0.00 0.00 0.00 50 1013.3
20260906010849 89 67 1.0 2.0 0.00 0.00 0.00 49 1013.3
20260906010348 89 58 1.0 2.0 0.00 0.00 0.00 48 1013.3
20260906005848 89 53 2.0 3.0 0.00 0.00 0.00 48 1013.2
20260906005349 88 30 2.0 4.0 0.00 0.00 0.00 50 1013.3
20260906004848 88 52 2.0 2.0 0.00 0.00 0.00 52 1013.3
20260906004348 89 45 2.0 2.0 0.00 0.00 0.00 52 1013.3
20260906003848 89 52 2.0 2.0 0.00 0.00 0.00 51 1013.3
20260906003349 90 51 1.0 2.0 0.00 0.00 0.00 52 1013.3
20260906002848 90 52 1.0 2.0 0.00 0.00 0.00 50 1013.3
20260906002348 91 49 1.0 1.0 0.00 0.00 0.00 51 1013.3
20260906001848 91 42 2.0 2.0 0.00 0.00 0.00 50 1013.3
20260906001348 92 61 2.0 2.0 0.00 0.00 0.00 49 1013.3
20260906000849 94 36 2.0 2.0 0.00 0.00 0.00 46 1013.2
20260906000348 95 47 1.0 2.0 0.00 0.00 0.00 44 1013.2
20260905235848 96 49 1.0 2.0 0.00 0.00 0.00 43 1013.3
20260905235349 96 52 2.0 2.0 0.00 0.00 0.00 41 1013.2
20260905234849 96 63 2.0 2.0 0.00 0.00 0.00 40 1013.1
20260905234348 96 58 2.0 4.0 0.00 0.00 0.00 40 1013.1
20260905233848 97 67 2.0 4.0 0.00 0.00 0.00 40 1013.1
20260905233349 97 82 3.0 4.0 0.00 0.00 0.00 39 1013.1
20260905232849 98 87 2.0 3.0 0.00 0.00 0.00 39 1013.1
20260905232348 98 92 3.0 4.0 0.00 0.00 0.00 38 1013.0
20260905231848 99 77 2.0 4.0 0.00 0.00 0.00 38 1013.0
20260905231348 100 47 4.0 5.0 0.00 0.00 0.00 36 1013.0
20260905230848 100 54 2.0 3.0 0.00 0.00 0.00 35 1012.9
20260905230348 101 91 3.0 5.0 0.00 0.00 0.00 36 1013.0
20260905225848 101 80 3.0 4.0 0.00 0.00 0.00 34 1012.9
20260905225353 102 81 2.0 4.0 0.00 0.00 0.00 33 1012.9
20260905224848 101 77 2.0 3.0 0.00 0.00 0.00 33 1012.9
20260905224348 101 74 4.0 5.0 0.00 0.00 0.00 33 1012.8
20260905223848 102 98 4.0 5.0 0.00 0.00 0.00 32 1012.8
20260905223348 102 74 2.0 2.0 0.00 0.00 0.00 31 1012.9
20260905222848 101 324 2.0 4.0 0.00 0.00 0.00 32 1012.9
20260905222349 101 206 2.0 2.0 0.00 0.00 0.00 32 1012.9
20260905221848 101 320 1.0 2.0 0.00 0.00 0.00 33 1012.9
20260905221349 102 292 2.0 2.0 0.00 0.00 0.00 31 1013.0
20260905220848 102 177 1.0 2.0 0.00 0.00 0.00 31 1013.0
20260905220349 102 106 3.0 5.0 0.00 0.00 0.00 31 1013.0
20260905215848 102 73 1.0 2.0 0.00 0.00 0.00 31 1013.1
20260905215348 101 338 1.0 3.0 0.00 0.00 0.00 31 1013.1
20260905214848 101 27 1.0 2.0 0.00 0.00 0.00 31 1013.2
20260905214348 100 42 2.0 4.0 0.00 0.00 0.00 32 1013.1
20260905213849 99 108 2.0 4.0 0.00 0.00 0.00 33 1013.2
20260905213348 98 110 3.0 4.0 0.00 0.00 0.00 34 1013.2
20260905212852 97 68 2.0 2.0 0.00 0.00 0.00 37 1013.3
20260905212349 98 22 2.0 2.0 0.00 0.00 0.00 37 1013.4
20260905211848 98 36 2.0 2.0 0.00 0.00 0.00 36 1013.4
20260905211348 98 60 2.0 3.0 0.00 0.00 0.00 36 1013.5
20260905210848 99 41 2.0 2.0 0.00 0.00 0.00 37 1013.7
20260905210348 100 112 3.0 4.0 0.00 0.00 0.00 36 1013.7
20260905205848 100 90 3.0 4.0 0.00 0.00 0.00 35 1013.8
20260905205348 101 78 3.0 4.0 0.00 0.00 0.00 33 1013.8
20260905204848 101 93 4.0 6.0 0.00 0.00 0.00 34 1013.8
20260905204351 101 63 3.0 4.0 0.00 0.00 0.00 34 1014.0
20260905203848 100 160 2.0 3.0 0.00 0.00 0.00 36 1014.0
20260905203348 101 114 5.0 6.0 0.00 0.00 0.00 34 1014.0
20260905202852 101 108 5.0 8.0 0.00 0.00 0.00 34 1014.1
20260905202348 101 96 3.0 5.0 0.00 0.00 0.00 34 1014.1
20260905201849 101 320 3.0 4.0 0.00 0.00 0.00 34 1014.2
20260905201349 101 54 1.0 3.0 0.00 0.00 0.00 34 1014.2
20260905200848 101 55 3.0 7.0 0.00 0.00 0.00 34 1014.3
20260905200348 100 191 3.0 4.0 0.00 0.00 0.00 35 1014.3
20260905195848 100 90 4.0 4.0 0.00 0.00 0.00 36 1014.4
20260905195349 100 155 1.0 3.0 0.00 0.00 0.00 36 1014.4
20260905194848 99 305 3.0 4.0 0.00 0.00 0.00 36 1014.5
20260905194348 99 322 1.0 2.0 0.00 0.00 0.00 37 1014.6
20260905193849 98 40 2.0 3.0 0.00 0.00 0.00 39 1014.6
20260905193348 99 86 3.0 4.0 0.00 0.00 0.00 38 1014.7
20260905192849 100 83 3.0 5.0 0.00 0.00 0.00 37 1014.7
20260905192349 100 166 3.0 6.0 0.00 0.00 0.00 37 1014.7
20260905191848 100 134 3.0 6.0 0.00 0.00 0.00 37 1014.8
20260905191348 100 215 3.0 6.0 0.00 0.00 0.00 36 1014.9
20260905190848 100 153 2.0 3.0 0.00 0.00 0.00 36 1015.0
20260905190348 100 131 6.0 8.0 0.00 0.00 0.00 36 1015.1
20260905185848 100 109 6.0 8.0 0.00 0.00 0.00 34 1015.1
20260905185348 99 32 2.0 5.0 0.00 0.00 0.00 36 1015.2
20260905184848 99 103 6.0 9.0 0.00 0.00 0.00 38 1015.3
20260905184348 100 60 4.0 6.0 0.00 0.00 0.00 37 1015.4
20260905183848 99 64 2.0 4.0 0.00 0.00 0.00 37 1015.4
20260905183348 98 118 3.0 4.0 0.00 0.00 0.00 38 1015.4
20260905182849 99 153 3.0 4.0 0.00 0.00 0.00 39 1015.5
20260905182348 99 296 3.0 6.0 0.00 0.00 0.00 38 1015.6
20260905181848 98 71 4.0 7.0 0.00 0.00 0.00 40 1015.6
20260905181349 98 286 3.0 4.0 0.00 0.00 0.00 38 1015.7
20260905180848 99 82 4.0 6.0 0.00 0.00 0.00 38 1015.8
20260905180348 98 292 2.0 4.0 0.00 0.00 0.00 40 1015.8
20260905175849 99 291 5.0 6.0 0.00 0.00 0.00 39 1015.9
20260905175348 99 72 1.0 3.0 0.00 0.00 0.00 40 1016.0
20260905174848 98 92 2.0 5.0 0.00 0.00 0.00 40 1016.0
20260905174348 99 314 5.0 7.0 0.00 0.00 0.00 40 1016.1
20260905173848 98 83 2.0 4.0 0.00 0.00 0.00 38 1016.1